When you browse on this site, cookies collect data to enhance your experience and personalize the content and advertising you see.
Visit our Privacy Policy to learn more. By continuing to use the site, you agree to this use of cookies and data.
  • In Lithuania
  • List of Countries
  • For 7 days
  • Water Temperature
  • Weather Map
  • Weather Widgets
  • user-avatar
    Login

    Hourly Weather Beroun

    Today, 20 September, Friday

    Time Temperature Precipitation Wind Pressure Humidity
    00:00 +8°C° 0 mm 1 mps 748 mmHg 78%
    01:00 +7°C° 0 mm 1 mps 748 mmHg 80%
    02:00 +7°C° 0 mm 1 mps 748 mmHg 81%
    03:00 +7°C° 0 mm 1 mps 748 mmHg 82%
    04:00 +7°C° 0 mm 1 mps 748 mmHg 83%
    05:00 +8°C° 0 mm 1 mps 748 mmHg 81%
    06:00 +8°C° 0 mm 1 mps 748 mmHg 80%
    07:00 +8°C° 0 mm 1 mps 748 mmHg 78%
    08:00 +11°C° 0 mm 1 mps 748 mmHg 70%
    09:00 +13°C° 0 mm 1 mps 748 mmHg 62%
    10:00 +15°C° 0 mm 1 mps 748 mmHg 54%
    11:00 +16°C° 0 mm 1 mps 748 mmHg 51%
    12:00 +16°C° 0 mm 1 mps 747 mmHg 47%
    13:00 +18°C° 0 mm 1 mps 747 mmHg 43%
    14:00 +18°C° 0 mm 1 mps 747 mmHg 44%
    15:00 +18°C° 0 mm 1 mps 746 mmHg 44%
    16:00 +18°C° 0 mm 1 mps 746 mmHg 45%
    17:00 +15°C° 0 mm 1 mps 746 mmHg 52%
    18:00 +13°C° 0 mm 1 mps 746 mmHg 59%
    19:00 +10°C° 0 mm 0 mps 746 mmHg 66%
    20:00 +10°C° 0 mm 0 mps 746 mmHg 68%
    21:00 +9°C° 0 mm 0 mps 746 mmHg 70%
    22:00 +10°C° 0 mm 1 mps 746 mmHg 73%
    23:00 +9°C° 0 mm 0 mps 746 mmHg 74%

    Tomorrow, 21 September, Saturday

    Time Temperature Precipitation Wind Pressure Humidity
    00:00 +8°C° 0 mm 0 mps 746 mmHg 76%
    01:00 +8°C° 0 mm 0 mps 746 mmHg 77%
    02:00 +8°C° 0 mm 0 mps 745 mmHg 78%
    03:00 +7°C° 0 mm 0 mps 745 mmHg 79%
    04:00 +7°C° 0 mm 0 mps 745 mmHg 80%
    05:00 +7°C° 0 mm 0 mps 745 mmHg 78%
    06:00 +8°C° 0 mm 0 mps 744 mmHg 76%
    07:00 +9°C° 0 mm 0 mps 744 mmHg 75%
    08:00 +12°C° 0 mm 1 mps 744 mmHg 67%
    09:00 +14°C° 0 mm 2 mps 744 mmHg 60%
    10:00 +16°C° 0 mm 2 mps 744 mmHg 52%
    11:00 +17°C° 0 mm 2 mps 744 mmHg 50%
    12:00 +18°C° 0 mm 3 mps 743 mmHg 47%
    13:00 +19°C° 0 mm 3 mps 743 mmHg 44%
    14:00 +19°C° 0 mm 3 mps 742 mmHg 45%
    15:00 +19°C° 0 mm 3 mps 742 mmHg 47%
    16:00 +19°C° 0 mm 3 mps 742 mmHg 48%
    17:00 +17°C° 0 mm 3 mps 741 mmHg 55%
    18:00 +14°C° 0 mm 3 mps 741 mmHg 61%
    19:00 +13°C° 0 mm 2 mps 741 mmHg 68%
    20:00 +13°C° 0 mm 2 mps 741 mmHg 67%
    21:00 +12°C° 0 mm 2 mps 741 mmHg 67%
    22:00 +10°C° 0 mm 2 mps 741 mmHg 67%
    23:00 +10°C° 0 mm 2 mps 740 mmHg 68%

    Day after tomorrow, 22 September, Sunday

    Time Temperature Precipitation Wind Pressure Humidity
    00:00 +9°C° 0 mm 2 mps 740 mmHg 69%
    01:00 +9°C° 0 mm 2 mps 740 mmHg 69%
    02:00 +8°C° 0 mm 2 mps 739 mmHg 70%
    03:00 +8°C° 0 mm 2 mps 739 mmHg 70%
    04:00 +9°C° 0 mm 1 mps 739 mmHg 71%
    05:00 +8°C° 0 mm 2 mps 739 mmHg 70%
    06:00 +8°C° 0 mm 2 mps 739 mmHg 70%
    07:00 +9°C° 0 mm 2 mps 738 mmHg 69%
    08:00 +12°C° 0 mm 2 mps 738 mmHg 62%
    09:00 +13°C° 0 mm 3 mps 738 mmHg 56%
    10:00 +15°C° 0 mm 4 mps 738 mmHg 49%
    11:00 +17°C° 0 mm 4 mps 738 mmHg 47%
    12:00 +19°C° 0 mm 4 mps 738 mmHg 45%
    13:00 +20°C° 0 mm 4 mps 737 mmHg 44%
    14:00 +20°C° 0 mm 4 mps 737 mmHg 45%
    15:00 +19°C° 0 mm 4 mps 736 mmHg 47%
    16:00 +19°C° 0 mm 3 mps 736 mmHg 48%
    17:00 +18°C° 0 mm 3 mps 735 mmHg 52%
    18:00 +16°C° 0 mm 3 mps 735 mmHg 56%
    19:00 +15°C° 0 mm 2 mps 735 mmHg 60%
    20:00 +14°C° 0 mm 2 mps 734 mmHg 62%
    21:00 +14°C° 0 mm 2 mps 734 mmHg 63%
    22:00 +13°C° 0 mm 1 mps 734 mmHg 64%
    23:00 +12°C° 0 mm 1 mps 733 mmHg 68%

    23 September, Monday

    Time Temperature Precipitation Wind Pressure Humidity
    00:00 +12°C° 0 mm 1 mps 733 mmHg 71%
    01:00 +11°C° 0 mm 1 mps 733 mmHg 75%
    02:00 +11°C° 0 mm 1 mps 733 mmHg 77%
    03:00 +9°C° 0 mm 0 mps 733 mmHg 80%
    04:00 +9°C° 0 mm 0 mps 732 mmHg 82%
    05:00 +9°C° 0 mm 0 mps 733 mmHg 81%
    06:00 +11°C° 0 mm 1 mps 733 mmHg 80%
    07:00 +11°C° 0 mm 1 mps 733 mmHg 79%
    08:00 +13°C° 0 mm 1 mps 733 mmHg 72%
    09:00 +16°C° 0 mm 2 mps 733 mmHg 65%
    10:00 +18°C° 0 mm 3 mps 733 mmHg 58%
    11:00 +19°C° 0 mm 3 mps 733 mmHg 57%
    12:00 +20°C° 0 mm 3 mps 733 mmHg 56%
    13:00 +21°C° 0 mm 3 mps 733 mmHg 55%
    14:00 +21°C° 0 mm 3 mps 733 mmHg 58%
    15:00 +21°C° 0 mm 3 mps 733 mmHg 61%
    16:00 +20°C° 0 mm 3 mps 733 mmHg 64%
    17:00 +19°C° 0 mm 3 mps 733 mmHg 69%
    18:00 +18°C° 0 mm 3 mps 734 mmHg 73%
    19:00 +17°C° 0 mm 4 mps 734 mmHg 78%
    20:00 +17°C° 0 mm 4 mps 734 mmHg 80%
    21:00 +15°C° 0 mm 4 mps 735 mmHg 83%
    22:00 +15°C° 0 mm 4 mps 735 mmHg 86%
    23:00 +15°C° 0 mm 4 mps 735 mmHg 86%

    24 September, Tuesday

    Time Temperature Precipitation Wind Pressure Humidity
    00:00 +14°C° 0 mm 3 mps 736 mmHg 87%
    01:00 +14°C° 0 mm 3 mps 736 mmHg 87%
    02:00 +14°C° 0 mm 3 mps 736 mmHg 88%
    03:00 +14°C° 0 mm 3 mps 736 mmHg 89%
    04:00 +13°C° 0 mm 3 mps 736 mmHg 90%
    05:00 +14°C° 0 mm 4 mps 737 mmHg 89%
    06:00 +14°C° 0 mm 4 mps 737 mmHg 88%
    07:00 +14°C° 0 mm 4 mps 737 mmHg 87%
    08:00 +15°C° 0.1 mm 4 mps 737 mmHg 84%
    09:00 +17°C° 0.1 mm 4 mps 738 mmHg 80%
    10:00 +17°C° 0.1 mm 4 mps 738 mmHg 77%
    11:00 +17°C° 0.1 mm 3 mps 738 mmHg 77%
    12:00 +17°C° 0.1 mm 3 mps 738 mmHg 77%
    13:00 +18°C° 0.1 mm 3 mps 738 mmHg 76%
    14:00 +18°C° 0.1 mm 3 mps 738 mmHg 74%
    15:00 +19°C° 0.1 mm 3 mps 738 mmHg 71%
    16:00 +19°C° 0.1 mm 2 mps 738 mmHg 68%
    17:00 +18°C° 0.1 mm 2 mps 738 mmHg 74%
    18:00 +17°C° 0.1 mm 2 mps 737 mmHg 79%
    19:00 +16°C° 0.1 mm 2 mps 737 mmHg 84%
    20:00 +15°C° 0 mm 2 mps 737 mmHg 86%
    21:00 +15°C° 0 mm 2 mps 737 mmHg 88%
    22:00 +14°C° 0 mm 2 mps 737 mmHg 90%
    23:00 +14°C° 0 mm 2 mps 737 mmHg 90%

    25 September, Wednesday

    Time Temperature Precipitation Wind Pressure Humidity
    00:00 +13°C° 0 mm 2 mps 737 mmHg 91%
    01:00 +13°C° 0 mm 2 mps 736 mmHg 91%
    02:00 +12°C° 0 mm 2 mps 736 mmHg 91%
    03:00 +12°C° 0 mm 2 mps 736 mmHg 92%
    04:00 +12°C° 0 mm 2 mps 735 mmHg 92%
    05:00 +12°C° 0 mm 2 mps 735 mmHg 89%
    06:00 +13°C° 0 mm 2 mps 735 mmHg 86%
    07:00 +13°C° 0 mm 2 mps 734 mmHg 84%
    08:00 +15°C° 0 mm 2 mps 734 mmHg 80%
    09:00 +16°C° 0 mm 2 mps 734 mmHg 76%
    10:00 +17°C° 0 mm 2 mps 734 mmHg 72%
    11:00 +18°C° 0 mm 2 mps 734 mmHg 69%
    12:00 +19°C° 0 mm 3 mps 733 mmHg 67%
    13:00 +21°C° 0 mm 3 mps 733 mmHg 64%
    14:00 +19°C° 0.6 mm 4 mps 733 mmHg 72%
    15:00 +18°C° 0.6 mm 4 mps 733 mmHg 79%
    16:00 +16°C° 0.6 mm 5 mps 733 mmHg 87%
    17:00 +17°C° 0.2 mm 4 mps 733 mmHg 87%
    18:00 +15°C° 0.2 mm 4 mps 733 mmHg 87%
    19:00 +14°C° 0.2 mm 4 mps 733 mmHg 87%
    20:00 +14°C° 0 mm 4 mps 733 mmHg 88%
    21:00 +14°C° 0 mm 4 mps 733 mmHg 89%
    22:00 +14°C° 0 mm 4 mps 733 mmHg 90%
    23:00 +13°C° 0 mm 3 mps 733 mmHg 90%
    Show more